This demonstration page uses our WeatherBlox Daily Observations layout. Learn more.

Left ArrowRight Arrow

44.8408, -93.29828

Hourly Observations for July 3, 2019

Temp ( °F °C ) Dew Point ( °F °C ) Humidity (%) Winds ( mph kmh ) Pressure ( in mb ) Visibility ( mi km ) Precip ( " mm )
12:53 am 00:53 Clear 73 22.8 67 19.4 81 81 Calm 29.87 1012 10 16 0.00 0.00
1:53 am 01:53 Clear 72 22.2 65 18.3 79 79 Calm 29.86 1011 10 16 0.00 0.00
2:53 am 02:53 Clear 70 21.1 64 17.8 82 82 ENE 3 6 29.86 1011 10 16 0.00 0.00
3:53 am 03:53 Clear 68 20 63 17.2 84 84 Calm 29.85 1011 10 16 0.00 0.00
4:53 am 04:53 Partly Cloudy 68 20 63 17.2 84 84 Calm 29.86 1011 10 16 0.00 0.00
5:53 am 05:53 Mostly Cloudy 68 20 64 17.8 87 87 ESE 6 9 29.85 1011 9 14 0.00 0.00
6:53 am 06:53 Mostly Cloudy 70 21.1 64 17.8 82 82 SE 5 7 29.87 1012 10 16 0.00 0.00
7:53 am 07:53 Mostly Cloudy 74 23.3 66 18.9 76 76 NE 3 6 29.90 1013 10 16 0.00 0.00
8:53 am 08:53 Cloudy 76 24.4 67 19.4 74 74 ESE 6 9 29.90 1012 10 16 0.00 0.00
9:53 am 09:53 Mostly Cloudy 79 26.1 70 21.1 74 74 SSE 6 9 29.88 1012 10 16 0.00 0.00
10:53 am 10:53 Mostly Cloudy 80 26.7 70 21.1 71 71 SE 10 17 29.87 1012 10 16 0.00 0.00
11:53 am 11:53 Mostly Cloudy 83 28.3 70 21.1 65 65 SSE 3 6 29.87 1011 10 16 0.00 0.00
12:53 pm 12:53 Mostly Cloudy 85 29.4 69 20.6 59 59 ESE 8 13 29.85 1011 10 16 0.00 0.00
1:53 pm 13:53 Mostly Cloudy 85 29.4 70 21.1 61 61 SE 9 15 29.84 1011 10 16 0.00 0.00
2:53 pm 14:53 Mostly Cloudy 86 30 70 21.1 59 59 SE 12 19 29.83 1010 10 16 0.00 0.00
3:53 pm 15:53 Mostly Cloudy 84 28.9 69 20.6 61 61 SE 8 13 29.82 1010 10 16 0.00 0.00
4:33 pm 16:33 Mostly Cloudy 78 25.6 68 20 71 71 S 14 22 29.81 1010 9 14 0.00 0.00
4:40 pm 16:40 Cloudy with Strong Thunderstorms 75 23.9 70 21.1 84 84 S 9 15 29.82 1010 2 2 0.10 2.54
4:53 pm 16:53 Mostly Cloudy with Thunderstorms 76 24.4 71 21.7 85 85 E 10 17 29.83 1010 8 13 0.24 6.10
4:58 pm 16:58 Mostly Cloudy with Light Rain 78 25.6 72 22.2 82 82 E 7 11 29.80 1009 8 13 0.01 0.25
5:53 pm 17:53 Mostly Cloudy 81 27.2 68 20 65 65 SE 5 7 29.81 1010 10 16 0.01 0.25
6:53 pm 18:53 Mostly Cloudy 78 25.6 68 20 71 71 SE 10 17 29.82 1010 10 16 0.00 0.00
7:53 pm 19:53 Mostly Cloudy 78 25.6 70 21.1 76 76 SE 9 15 29.83 1010 10 16 0.00 0.00
8:53 pm 20:53 Mostly Cloudy 78 25.6 69 20.6 74 74 SE 10 17 29.82 1010 10 16 0.00 0.00
9:53 pm 21:53 Mostly Cloudy 76 24.4 68 20 77 77 SSE 8 13 29.83 1010 10 16 0.00 0.00
10:53 pm 22:53 Mostly Cloudy 75 23.9 67 19.4 76 76 SE 10 17 29.85 1011 10 16 0.00 0.00
11:53 pm 23:53 Partly Cloudy 74 23.3 67 19.4 79 79 SSE 8 13 29.85 1011 10 16 0.00 0.00

Powered by AerisWeather